When you browse on this site, cookies collect data to enhance your experience and personalize the content and advertising you see.
Visit our Privacy Policy to learn more. By continuing to use the site, you agree to this use of cookies and data.

Hourly Weather Kolodino

Today, 11 August, Tuesday

Time Temperature Precipitation Wind Pressure Humidity
00:00 +12°C° 0 mm 3 mps 742 mmHg 93%
01:00 +11°C° 0 mm 3 mps 742 mmHg 95%
02:00 +10°C° 0 mm 3 mps 742 mmHg 96%
03:00 +10°C° 0 mm 3 mps 742 mmHg 96%
04:00 +10°C° 0 mm 3 mps 742 mmHg 96%
05:00 +10°C° 0 mm 3 mps 742 mmHg 96%
06:00 +11°C° 0 mm 3 mps 742 mmHg 90%
07:00 +12°C° 0 mm 3 mps 743 mmHg 85%
08:00 +14°C° 0 mm 4 mps 743 mmHg 80%
09:00 +14°C° 0.1 mm 4 mps 743 mmHg 77%
10:00 +14°C° 0.1 mm 4 mps 743 mmHg 73%
11:00 +15°C° 0.1 mm 4 mps 743 mmHg 70%
12:00 +15°C° 0.2 mm 4 mps 743 mmHg 72%
13:00 +14°C° 0.2 mm 4 mps 743 mmHg 74%
14:00 +14°C° 0.2 mm 4 mps 743 mmHg 76%
15:00 +14°C° 0.2 mm 4 mps 743 mmHg 78%
16:00 +14°C° 0.2 mm 4 mps 742 mmHg 79%
17:00 +13°C° 0.2 mm 3 mps 742 mmHg 81%
18:00 +13°C° 0.1 mm 3 mps 742 mmHg 84%
19:00 +12°C° 0.1 mm 3 mps 742 mmHg 88%
20:00 +11°C° 0.1 mm 3 mps 742 mmHg 91%
21:00 +11°C° 0 mm 3 mps 742 mmHg 92%
22:00 +11°C° 0 mm 4 mps 742 mmHg 93%
23:00 +12°C° 0 mm 4 mps 742 mmHg 93%

Tomorrow, 12 August, Wednesday

Time Temperature Precipitation Wind Pressure Humidity
00:00 +12°C° 0 mm 4 mps 742 mmHg 93%
01:00 +12°C° 0 mm 4 mps 742 mmHg 92%
02:00 +12°C° 0 mm 4 mps 742 mmHg 92%
03:00 +12°C° 0 mm 4 mps 742 mmHg 91%
04:00 +12°C° 0 mm 4 mps 742 mmHg 90%
05:00 +11°C° 0 mm 4 mps 742 mmHg 90%
06:00 +12°C° 0 mm 4 mps 743 mmHg 87%
07:00 +12°C° 0 mm 4 mps 743 mmHg 85%
08:00 +12°C° 0 mm 4 mps 743 mmHg 83%
09:00 +13°C° 0 mm 4 mps 743 mmHg 78%
10:00 +14°C° 0 mm 4 mps 743 mmHg 74%
11:00 +15°C° 0 mm 4 mps 744 mmHg 69%
12:00 +17°C° 0.2 mm 4 mps 744 mmHg 68%
13:00 +17°C° 0.2 mm 4 mps 744 mmHg 67%
14:00 +18°C° 0.2 mm 4 mps 744 mmHg 66%
15:00 +17°C° 0.2 mm 3 mps 744 mmHg 71%
16:00 +16°C° 0.2 mm 3 mps 744 mmHg 76%
17:00 +14°C° 0.2 mm 3 mps 744 mmHg 80%
18:00 +13°C° 0 mm 3 mps 744 mmHg 83%
19:00 +13°C° 0 mm 2 mps 744 mmHg 85%
20:00 +10°C° 0 mm 2 mps 744 mmHg 88%
21:00 +10°C° 0 mm 2 mps 744 mmHg 88%
22:00 +9°C° 0 mm 2 mps 744 mmHg 89%
23:00 +9°C° 0 mm 2 mps 744 mmHg 90%

Day after tomorrow, 13 August, Thursday

Time Temperature Precipitation Wind Pressure Humidity
00:00 +9°C° 0 mm 2 mps 744 mmHg 89%
01:00 +9°C° 0 mm 2 mps 744 mmHg 88%
02:00 +9°C° 0 mm 2 mps 744 mmHg 86%
03:00 +9°C° 0 mm 2 mps 744 mmHg 86%
04:00 +9°C° 0 mm 2 mps 744 mmHg 85%
05:00 +10°C° 0 mm 2 mps 744 mmHg 84%
06:00 +10°C° 0 mm 2 mps 744 mmHg 81%
07:00 +12°C° 0 mm 2 mps 744 mmHg 78%
08:00 +12°C° 0 mm 2 mps 744 mmHg 75%
09:00 +13°C° 0.1 mm 2 mps 744 mmHg 71%
10:00 +13°C° 0.1 mm 3 mps 744 mmHg 66%
11:00 +14°C° 0.1 mm 3 mps 744 mmHg 62%
12:00 +16°C° 0.1 mm 3 mps 744 mmHg 60%
13:00 +16°C° 0.1 mm 3 mps 744 mmHg 59%
14:00 +17°C° 0.1 mm 2 mps 743 mmHg 57%
15:00 +16°C° 0.1 mm 2 mps 743 mmHg 63%
16:00 +15°C° 0.1 mm 2 mps 743 mmHg 69%
17:00 +14°C° 0.1 mm 2 mps 743 mmHg 75%
18:00 +13°C° 0 mm 2 mps 743 mmHg 79%
19:00 +12°C° 0 mm 2 mps 743 mmHg 82%
20:00 +10°C° 0 mm 2 mps 744 mmHg 86%
21:00 +9°C° 0 mm 2 mps 744 mmHg 87%
22:00 +9°C° 0 mm 2 mps 744 mmHg 89%
23:00 +8°C° 0 mm 2 mps 744 mmHg 91%

14 August, Friday

Time Temperature Precipitation Wind Pressure Humidity
00:00 +8°C° 0 mm 2 mps 744 mmHg 91%
01:00 +8°C° 0 mm 2 mps 744 mmHg 91%
02:00 +8°C° 0 mm 2 mps 744 mmHg 91%
03:00 +7°C° 0 mm 2 mps 744 mmHg 92%
04:00 +7°C° 0 mm 2 mps 744 mmHg 93%
05:00 +7°C° 0 mm 2 mps 744 mmHg 94%
06:00 +9°C° 0 mm 2 mps 744 mmHg 85%
07:00 +12°C° 0 mm 2 mps 744 mmHg 76%
08:00 +14°C° 0 mm 2 mps 744 mmHg 68%
09:00 +16°C° 0 mm 2 mps 744 mmHg 61%
10:00 +17°C° 0 mm 2 mps 744 mmHg 55%
11:00 +19°C° 0 mm 2 mps 744 mmHg 48%
12:00 +20°C° 0 mm 1 mps 744 mmHg 49%
13:00 +20°C° 0 mm 1 mps 744 mmHg 49%
14:00 +20°C° 0 mm 1 mps 743 mmHg 49%
15:00 +20°C° 0 mm 1 mps 743 mmHg 52%
16:00 +18°C° 0 mm 0 mps 743 mmHg 55%
17:00 +18°C° 0 mm 0 mps 743 mmHg 59%
18:00 +18°C° 0 mm 1 mps 743 mmHg 63%
19:00 +15°C° 0 mm 1 mps 743 mmHg 68%
20:00 +13°C° 0 mm 1 mps 743 mmHg 72%
21:00 +13°C° 0 mm 1 mps 743 mmHg 75%
22:00 +12°C° 0 mm 1 mps 742 mmHg 77%
23:00 +12°C° 0 mm 1 mps 742 mmHg 79%

15 August, Saturday

Time Temperature Precipitation Wind Pressure Humidity
00:00 +11°C° 0 mm 1 mps 742 mmHg 82%
01:00 +11°C° 0 mm 1 mps 742 mmHg 86%
02:00 +10°C° 0 mm 1 mps 742 mmHg 89%
03:00 +11°C° 0 mm 1 mps 742 mmHg 90%
04:00 +11°C° 0 mm 1 mps 742 mmHg 90%
05:00 +12°C° 0 mm 1 mps 742 mmHg 91%
06:00 +12°C° 0.2 mm 1 mps 741 mmHg 92%
07:00 +13°C° 0.2 mm 1 mps 741 mmHg 93%
08:00 +13°C° 0.2 mm 1 mps 741 mmHg 95%
09:00 +13°C° 0.2 mm 1 mps 741 mmHg 95%
10:00 +14°C° 0.2 mm 1 mps 741 mmHg 95%
11:00 +14°C° 0.2 mm 1 mps 741 mmHg 96%
12:00 +14°C° 0.4 mm 1 mps 741 mmHg 96%
13:00 +14°C° 0.4 mm 1 mps 741 mmHg 96%
14:00 +15°C° 0.4 mm 1 mps 741 mmHg 96%
15:00 +15°C° 0.1 mm 1 mps 741 mmHg 96%
16:00 +15°C° 0.1 mm 1 mps 741 mmHg 96%
17:00 +15°C° 0.1 mm 1 mps 741 mmHg 96%
18:00 +14°C° 0 mm 1 mps 741 mmHg 96%
19:00 +14°C° 0 mm 1 mps 741 mmHg 97%
20:00 +14°C° 0 mm 2 mps 741 mmHg 97%
21:00 +13°C° 0 mm 2 mps 742 mmHg 96%
22:00 +13°C° 0 mm 2 mps 742 mmHg 95%
23:00 +13°C° 0 mm 2 mps 742 mmHg 94%

16 August, Sunday

Time Temperature Precipitation Wind Pressure Humidity
00:00 +12°C° 0 mm 2 mps 743 mmHg 95%
01:00 +10°C° 0 mm 2 mps 743 mmHg 96%
02:00 +10°C° 0 mm 2 mps 743 mmHg 97%
03:00 +9°C° 0 mm 2 mps 743 mmHg 97%
04:00 +9°C° 0 mm 2 mps 744 mmHg 97%
05:00 +9°C° 0 mm 2 mps 744 mmHg 98%
06:00 +10°C° 0 mm 2 mps 744 mmHg 93%
07:00 +13°C° 0 mm 2 mps 744 mmHg 88%
08:00 +14°C° 0 mm 2 mps 745 mmHg 83%
09:00 +16°C° 0 mm 2 mps 745 mmHg 72%
10:00 +17°C° 0 mm 2 mps 745 mmHg 62%
11:00 +19°C° 0 mm 3 mps 746 mmHg 51%
12:00 +19°C° 0 mm 3 mps 746 mmHg 51%
13:00 +20°C° 0 mm 2 mps 745 mmHg 50%
14:00 +20°C° 0 mm 2 mps 745 mmHg 50%
15:00 +20°C° 0 mm 2 mps 745 mmHg 54%
16:00 +19°C° 0 mm 2 mps 746 mmHg 59%
17:00 +19°C° 0 mm 2 mps 746 mmHg 63%
18:00 +17°C° 0 mm 2 mps 746 mmHg 69%
19:00 +15°C° 0 mm 2 mps 746 mmHg 75%
20:00 +13°C° 0 mm 2 mps 746 mmHg 81%
21:00 +12°C° 0 mm 2 mps 746 mmHg 82%
22:00 +12°C° 0 mm 1 mps 746 mmHg 84%
23:00 +11°C° 0 mm 1 mps 746 mmHg 85%
Show more